This is the latest recevied weather packets stored in our database for station/object KD7CIH. If no packets are shown the sender has not sent any weather packets the latest 10 day(s).
| Time | Temp. | Humidity | Pressure | Rain* | Wind** | Luminosity | Snow |
|---|---|---|---|---|---|---|---|
| 1787737233 | 15.56° C | 58% | 1022.7 hPa | 0 mm | - | - | - |
| 1787737062 | 15.56° C | 57% | 1022.7 hPa | 0 mm | - | - | - |
| 1787736633 | 15.56° C | 57% | 1022.8 hPa | 0 mm | - | - | - |
| 1787736460 | 16.11° C | 56% | 1022.8 hPa | 0 mm | - | - | - |
| 1787736161 | 16.11° C | 56% | 1022.9 hPa | 0 mm | - | - | - |
| 1787735735 | 16.11° C | 54% | 1022.9 hPa | 0 mm | - | - | - |
| 1787735435 | 16.11° C | 56% | 1022.9 hPa | 0 mm | - | - | - |
| 1787735262 | 16.11° C | 54% | 1023 hPa | 0 mm | - | - | - |
| 1787734834 | 16.11° C | 56% | 1023 hPa | 0 mm | - | - | - |
| 1787734533 | 15.56° C | 55% | 1023 hPa | 0 mm | - | - | - |
| 1787734363 | 15.56° C | 59% | 1023 hPa | 0 mm | - | - | - |
| 1787733933 | 15.56° C | 59% | 1022.9 hPa | 0 mm | - | - | - |
| 1787733761 | 15.56° C | 59% | 1023 hPa | 0 mm | - | - | - |
| 1787733335 | 15.56° C | 61% | 1022.9 hPa | 0 mm | - | - | - |
| 1787733035 | 15° C | 61% | 1023 hPa | 0 mm | - | - | - |
| 1787732733 | 15° C | 64% | 1023.1 hPa | 0 mm | - | - | - |
| 1787732434 | 14.44° C | 63% | 1023.1 hPa | 0 mm | - | - | - |
| 1787732135 | 14.44° C | 67% | 1023.3 hPa | 0 mm | - | - | - |
| 1787731961 | 14.44° C | 68% | 1023.3 hPa | 0 mm | - | - | - |
| 1787731533 | 14.44° C | 68% | 1023.3 hPa | 0 mm | - | - | - |
| 1787731235 | 14.44° C | 65% | 1023.1 hPa | 0 mm | - | - | - |
| 1787730933 | 14.44° C | 67% | 1023.1 hPa | 0 mm | - | - | - |
| 1787730762 | 14.44° C | 68% | 1023.1 hPa | 0 mm | - | - | - |
| 1787730331 | 14.44° C | 68% | 1023 hPa | 0 mm | - | - | - |
| 1787730022 | 14.44° C | 68% | 1023.1 hPa | 0 mm | - | - | - |
* Rain latest hour (hover to see other rain measurements)
** Current wind speed in m/s (hover to see current wind gust speed)